This is the latest recevied weather packets stored in our database for station/object AC5CM. If no packets are shown the sender has not sent any weather packets the latest 10 day(s).
| Time | Temp. | Humidity | Pressure | Rain* | Wind** | Luminosity | Snow |
|---|---|---|---|---|---|---|---|
| 1777564088 | 27.78° C | 73% | 1011.9 hPa | 0 mm | - | - | - |
| 1777563784 | 27.78° C | 74% | 1012 hPa | 0 mm | - | - | - |
| 1777563481 | 27.78° C | 75% | 1012.1 hPa | 0 mm | - | - | - |
| 1777563180 | 27.78° C | 75% | 1011.8 hPa | 0 mm | - | - | - |
| 1777562876 | 27.22° C | 77% | 1011.7 hPa | 0 mm | - | - | - |
| 1777562573 | 27.22° C | 77% | 1011.8 hPa | 0 mm | - | - | - |
| 1777562271 | 27.78° C | 76% | 1011.8 hPa | 0 mm | - | - | - |
| 1777561969 | 27.78° C | 77% | 1011.7 hPa | 0 mm | - | - | - |
| 1777561666 | 27.22° C | 78% | 1011.7 hPa | 0 mm | - | - | - |
| 1777561361 | 27.22° C | 79% | 1011.8 hPa | 0 mm | - | - | - |
| 1777561062 | 26.67° C | 80% | 1011.6 hPa | 0 mm | - | - | - |
| 1777560757 | 26.67° C | 80% | 1011.4 hPa | 0 mm | - | - | - |
| 1777560454 | 26.67° C | 80% | 1011.6 hPa | 0 mm | - | - | - |
| 1777560152 | 26.67° C | 81% | 1011.7 hPa | 0 mm | - | - | - |
| 1777559849 | 26.11° C | 82% | 1011.7 hPa | 0 mm | - | - | - |
| 1777559545 | 26.11° C | 83% | 1011.6 hPa | 0 mm | - | - | - |
| 1777559242 | 25.56° C | 83% | 1011.9 hPa | 0 mm | - | - | - |
| 1777558937 | 25.56° C | 83% | 1011.8 hPa | 0 mm | - | - | - |
| 1777558634 | 25.56° C | 84% | 1011.6 hPa | 0 mm | - | - | - |
| 1777558330 | 25.56° C | 83% | 1011.6 hPa | 0 mm | - | - | - |
| 1777558027 | 25.56° C | 84% | 1011.4 hPa | 0 mm | - | - | - |
| 1777557722 | 25° C | 86% | 1011.6 hPa | 0 mm | - | - | - |
| 1777557419 | 24.44° C | 87% | 1011.5 hPa | 0 mm | - | - | - |
| 1777557115 | 24.44° C | 87% | 1011.6 hPa | 0 mm | - | - | - |
| 1777556810 | 24.44° C | 88% | 1011.5 hPa | 0 mm | - | - | - |
* Rain latest hour (hover to see other rain measurements)
** Current wind speed in m/s (hover to see current wind gust speed)